This is the latest recevied weather packets stored in our database for station/object W0WC. If no packets are shown the sender has not sent any weather packets the latest 10 day(s).
| Time | Temp. | Humidity | Pressure | Rain* | Wind** | Luminosity | Snow |
|---|---|---|---|---|---|---|---|
| 1777680378 | 18.33° C | 33% | 1017.1 hPa | 0 mm | - | 68 W/m² | - |
| 1777680076 | 18.33° C | 34% | 1017 hPa | 0 mm | - | 73 W/m² | - |
| 1777679771 | 18.33° C | 35% | 1017.1 hPa | 0 mm | - | 79 W/m² | - |
| 1777679467 | 18.89° C | 33% | 1017.1 hPa | 0 mm | - | 86 W/m² | - |
| 1777679163 | 19.44° C | 30% | 1016.9 hPa | 0 mm | - | 108 W/m² | - |
| 1777678861 | 18.89° C | 32% | 1017 hPa | 0 mm | - | 119 W/m² | - |
| 1777678559 | 18.33° C | 32% | 1017.1 hPa | 0 mm | - | 134 W/m² | - |
| 1777678255 | 18.33° C | 33% | 1017 hPa | 0 mm | - | 126 W/m² | - |
| 1777677951 | 18.33° C | 31% | 1017.2 hPa | 0 mm | - | 154 W/m² | - |
| 1777677649 | 18.33° C | 31% | 1017.2 hPa | 0 mm | - | 177 W/m² | - |
| 1777677347 | 18.89° C | 32% | 1017.2 hPa | 0 mm | - | 176 W/m² | - |
| 1777677045 | 18.33° C | 32% | 1017.1 hPa | 0 mm | - | 204 W/m² | - |
| 1777676743 | 18.33° C | 32% | 1017.2 hPa | 0 mm | - | 211 W/m² | - |
| 1777676441 | 18.33° C | 32% | 1017 hPa | 0 mm | - | 228 W/m² | - |
| 1777676138 | 18.33° C | 32% | 1017 hPa | 0 mm | - | 238 W/m² | - |
| 1777675834 | 18.33° C | 32% | 1016.9 hPa | 0 mm | - | 251 W/m² | - |
| 1777675532 | 18.33° C | 33% | 1016.8 hPa | 0 mm | - | 248 W/m² | - |
| 1777675229 | 18.33° C | 32% | 1016.8 hPa | 0 mm | - | 277 W/m² | - |
| 1777674925 | 18.33° C | 31% | 1016.9 hPa | 0 mm | - | 275 W/m² | - |
| 1777674622 | 18.33° C | 33% | 1016.9 hPa | 0 mm | - | 283 W/m² | - |
| 1777674321 | 18.33° C | 33% | 1016.9 hPa | 0 mm | - | 352 W/m² | - |
| 1777674016 | 17.78° C | 32% | 1017 hPa | 0 mm | - | 350 W/m² | - |
| 1777673711 | 18.33° C | 32% | 1017 hPa | 0 mm | - | 366 W/m² | - |
| 1777673409 | 18.33° C | 32% | 1016.9 hPa | 0 mm | - | 357 W/m² | - |
| 1777673107 | 18.33° C | 33% | 1016.8 hPa | 0 mm | - | 407 W/m² | - |
* Rain latest hour (hover to see other rain measurements)
** Current wind speed in m/s (hover to see current wind gust speed)